Погода в Соловьеве

Россия / Липецкая область     52°46′59″N   38°26′46″E
темп.,
°C
ветер,
м/с
пор.,
м/с
влажн.,
%
обл.,
%
осадки,
мм/ч
давл.,
гПа
погр.,
м
28 ноября, вс
вс2800:00+2ю51296100 0.1 1005374
03:00+3ю5109898 0.1 1005262
06:00+3ю4999100 0.0 1006235
09:00+4ююз3899100 0.1 1007236
12:00+5ююз3798100 0.0 1008217
15:00+5ююз359683 0.0 1009181
18:00+4ю3494100 0.0 101075
21:00+5ююв3792100 0.0 1010173
29 ноября, пн
пн2900:00+5ююв4888100 0.0 1010222
03:00+4юв41094100 0.0 1009246
06:00+4вюв4998100 0.1 1006201
09:00+5в51099100 3.0 1002268
12:00+6юв41199100 1.4 1000401
15:00+7ю41099100 2.2 998357
18:00+8ююв51197100 0.2 996412
21:00+8юв81597100 4.6 990566
30 ноября, вт
вт3000:00+11ююв101891100 8.6 982988
03:00+10ююз10179294 12.7 9781178
06:00+9ююз81493100 2.3 9751029
09:00+2зюз162294100 4.6 979860
12:00+1зюз142495100 3.4 9861271
15:00+2зюз132076100 3.6 9891275
18:00+1юз11187699 0.0 9911322
21:00+1юз101676100 0.1 9911123
1 декабря, ср
ср100:00−1юз8137985 0.1 9911017
03:000зюз8127791 0.2 9921198
06:00−1з9148199 0.1 9921047
09:00−2з71276100 0.1 9941100
12:00−1з81175100 0.1 9961221
15:00−2з81274100 0.1 9971152
18:00−2з7117674 0.0 9981058
21:00−3з6107965 0.0 1000863
2 декабря, чт
чт200:00−3з510819 0.0 1001682
03:00−4зюз488493 0.0 1003514
06:00−4юз51084100 0.0 1004493
09:00−2ю61382100 0.0 1003453
12:000ююз81697100 0.9 1001723
15:00+1юз71597100 1.6 1001655
18:00+1юз71497100 0.1 1003598
21:00+2юз61494100 0.1 1004593